User: anonymous   Login
Location: Raven Hill Discovery Center
(45.1336°N, 85.0553°W)
Time: 20:07:51
(UTC-04:00)
Language:

Cosmos 1470 - Orbit

View from above orbital plane
View from above orbital plane
View from above satellite
View from above satellite

Ground track
Ground track

The orbit data is extracted from the following two-line orbital elements,

1 14147U 83061A   17177.18325679 +.00000132 +00000-0 +61378-5 0  9995
2 14147 082.4857 030.1487 0015104 227.2438 132.7522 15.10660115605891
Epoch (UTC): 26 June 2017 04:23:53
Eccentricity: 0.0015104
inclination: 82.4857°
perigee height: 524 km
apogee height: 544 km
right ascension of ascending node: 30.1487°
argument of perigee: 227.2438°
revolutions per day: 15.10660115
mean anomaly at epoch: 132.7522°
orbit number at epoch: 60589

The dashed part of the orbit path shows where the satellite is in the earth's shadow,  

DLR